Location: Kellogg
(38.0159°N, 90.0546°W)
Time: 08:23:41
(UTC+00:00)

S-56A Canister/Altair - Pass Details

Date: 20 September 2024
Orbit: 636 x 2487 km, 38.9° (Epoch: 09 October)

Event Time Altitude Azimuth Distance (km) Brightness Sun altitude
Rises 07:19:50 0° 266° (W) 4,799 - -46.3°
Reaches altitude 10° 07:28:36 10° 225° (SW) 4,436 - -45.4°
Maximum altitude 07:28:59 10° 223° (SW) 4,457 - -45.3°
Drops below altitude 10° 07:29:22 10° 221° (SW) 4,482 - -45.3°
Sets 07:40:07 0° 182° (S) 5,982 - -44.0°
